User: anonymous   Login
Location: Caltech
(34.1382°N, 118.1253°W)
Time: 19:25:35
(UTC-07:00)
Language:

Cosmos 1937 Rocket - Orbit

View from above orbital plane
View from above orbital plane
View from above satellite
View from above satellite

Ground track
Ground track

The orbit data is extracted from the following two-line orbital elements,

1 19039U 88029B   15149.73952190  .00000103  00000-0  42469-4 0  9998
2 19039 074.0486 239.3931 0024645 240.0527 287.1367 14.38213198423108
Epoch (UTC): 29 May 2015 17:44:54
Eccentricity: 0.0024645
inclination: 74.0486°
perigee height: 747 km
apogee height: 782 km
right ascension of ascending node: 239.3931°
argument of perigee: 240.0527°
revolutions per day: 14.38213198
mean anomaly at epoch: 287.1367°
orbit number at epoch: 42310

The dashed part of the orbit path shows where the satellite is in the earth's shadow,  

DLR